This is the latest recevied weather packets stored in our database for station/object N4ASP-13. If no packets are shown the sender has not sent any weather packets the latest 10 day(s).
| Time | Temp. | Humidity | Pressure | Rain* | Wind** | Luminosity | Snow |
|---|---|---|---|---|---|---|---|
| 1788630512 | 26.67° C | 65% | 1016 hPa | 0 mm | - | 204 W/m² | - |
| 1788630453 | 26.67° C | 65% | 1016 hPa | 0 mm | - | 209 W/m² | - |
| 1788630393 | 26.67° C | 65% | 1016 hPa | 0 mm | - | 214 W/m² | - |
| 1788630333 | 26.67° C | 65% | 1016.1 hPa | 0 mm | - | 214 W/m² | - |
| 1788630271 | 26.67° C | 64% | 1016.1 hPa | 0 mm | - | 213 W/m² | - |
| 1788630213 | 26.67° C | 65% | 1016.2 hPa | 0 mm | - | 211 W/m² | - |
| 1788630151 | 26.67° C | 65% | 1016.2 hPa | 0 mm | - | 209 W/m² | - |
| 1788630092 | 26.67° C | 65% | 1016.3 hPa | 0 mm | - | 206 W/m² | - |
| 1788630033 | 26.67° C | 65% | 1016.4 hPa | 0 mm | - | 200 W/m² | - |
| 1788629969 | 26.67° C | 66% | 1016.4 hPa | 0 mm | - | 197 W/m² | - |
| 1788629908 | 26.67° C | 66% | 1016.4 hPa | 0 mm | - | 193 W/m² | - |
| 1788629847 | 26.67° C | 68% | 1016.4 hPa | 0 mm | - | 190 W/m² | - |
| 1788629787 | 26.67° C | 67% | 1016.4 hPa | 0 mm | - | 186 W/m² | - |
| 1788629728 | 26.67° C | 68% | 1016.3 hPa | 0 mm | - | 181 W/m² | - |
| 1788629667 | 26.67° C | 67% | 1016.3 hPa | 0 mm | - | 176 W/m² | - |
| 1788629607 | 27.22° C | 67% | 1016.2 hPa | 0 mm | - | 167 W/m² | - |
| 1788629559 | 27.22° C | 67% | 1016.2 hPa | 0 mm | - | 158 W/m² | - |
| 1788629489 | 27.22° C | 66% | 1016.3 hPa | 0 mm | - | 153 W/m² | - |
| 1788629427 | 27.22° C | 65% | 1016.2 hPa | 0 mm | - | 148 W/m² | - |
| 1788629368 | 27.22° C | 68% | 1016.1 hPa | 0 mm | - | 142 W/m² | - |
| 1788629307 | 27.22° C | 68% | 1016.1 hPa | 0 mm | - | 139 W/m² | - |
| 1788629247 | 27.22° C | 68% | 1016.2 hPa | 0 mm | - | 137 W/m² | - |
| 1788629188 | 27.22° C | 69% | 1016.1 hPa | 0 mm | - | 141 W/m² | - |
| 1788629128 | 27.22° C | 68% | 1016.1 hPa | 0 mm | - | 148 W/m² | - |
| 1788629068 | 27.78° C | 68% | 1015.9 hPa | 0 mm | - | 156 W/m² | - |
* Rain latest hour (hover to see other rain measurements)
** Current wind speed in m/s (hover to see current wind gust speed)